PU1CMA-13 Weather Reports


Display with metric or nautical units.
time (UTC)temp
F
wind
direction
speed
MPH
gust
MPH
rain 1hr
in
rain 24hr
in
rain mn
in
humidity
%
barometer
mb
20260505065824 0 0.0 0.0 0.00 0.00 0.00 66 1016.0
20260505064402 0 0.0 0.0 0.00 0.00 0.00 66 1016.1
20260505062937 0 0.0 0.0 0.00 0.00 0.00 66 1016.2
20260505061525 0 0.0 0.0 0.00 0.00 0.00 65 1016.2
20260505060103 0 0.0 0.0 0.00 0.00 0.00 66 1016.3
20260505054640 0 0.0 0.0 0.00 0.00 0.00 65 1016.3
20260505053223 0 0.0 0.0 0.00 0.00 0.00 65 1016.3
20260505051804 0 0.0 0.0 0.00 0.00 0.00 64 1016.3
20260505050344 0 0.0 0.0 0.00 0.00 0.00 64 1016.4
20260505040626 0 0.0 0.0 0.00 0.00 0.00 63 1016.8
20260505035207 0 0.0 0.0 0.00 0.00 0.00 63 1016.9
20260505033749 0 0.0 0.0 0.00 0.00 0.00 63 1017.0
20260505032329 0 0.0 0.0 0.00 0.00 0.00 63 1017.2
20260505030911 0 0.0 0.0 0.00 0.00 0.00 63 1017.2
20260505025450 0 0.0 0.0 0.00 0.00 0.00 63 1017.2
20260505024041 0 0.0 0.0 0.00 0.00 0.00 63 1017.4
20260505022614 0 0.0 0.0 0.00 0.00 0.00 63 1017.5
20260505015735 0 0.0 0.0 0.00 0.00 0.00 63 1017.6
20260505014324 0 0.0 0.0 0.00 0.00 0.00 64 1017.6
20260505012907 0 0.0 0.0 0.00 0.00 0.00 64 1017.6
20260505011450 0 0.0 0.0 0.00 0.00 0.00 65 1017.7
20260505010033 0 0.0 0.0 0.00 0.00 0.00 65 1017.8
20260505004611 0 0.0 0.0 0.00 0.00 0.00 65 1017.7
20260505003153 0 0.0 0.0 0.00 0.00 0.00 65 1017.7
20260505001738 0 0.0 0.0 0.00 0.00 0.00 64 1017.7
20260504234910 0 0.0 0.0 0.00 0.00 0.00 65 1017.7
20260504233455 0 0.0 0.0 0.00 0.00 0.00 65 1017.6
20260504232028 0 0.0 0.0 0.00 0.00 0.00 65 1017.6
20260504230616 0 0.0 0.0 0.00 0.00 0.00 64 1017.5
20260504225158 0 0.0 0.0 0.00 0.00 0.00 64 1017.4
20260504223742 0 0.0 0.0 0.00 0.00 0.00 63 1017.3
20260504222315 0 0.0 0.0 0.00 0.00 0.00 62 1017.0
20260504220856 0 0.0 0.0 0.00 0.00 0.00 62 1016.9
20260504215444 0 0.0 0.0 0.00 0.00 0.00 62 1016.7
20260504214022 0 0.0 0.0 0.00 0.00 0.00 62 1016.5
20260504212608 0 0.0 0.0 0.00 0.00 0.00 63 1016.2
20260504211148 0 0.0 0.0 0.00 0.00 0.00 63 1016.1
20260504205730 0 0.0 0.0 0.00 0.00 0.00 62 1016.0
20260504204306 0 0.0 0.0 0.00 0.00 0.00 62 1015.9
20260504202854 0 0.0 0.0 0.00 0.00 0.00 61 1015.7
20260504201435 0 0.0 0.0 0.00 0.00 0.00 61 1015.7
20260504200013 0 0.0 0.0 0.00 0.00 0.00 61 1015.7
20260504194557 0 0.0 0.0 0.00 0.00 0.00 61 1015.6
20260504193136 0 0.0 0.0 0.00 0.00 0.00 60 1015.6
20260504191723 0 0.0 0.0 0.00 0.00 0.00 61 1015.5
20260504190257 0 0.0 0.0 0.00 0.00 0.00 61 1015.3
20260504184846 0 0.0 0.0 0.00 0.00 0.00 61 1015.3
20260504183430 0 0.0 0.0 0.00 0.00 0.00 61 1015.2
20260504182004 0 0.0 0.0 0.00 0.00 0.00 63 1015.1
20260504180542 0 0.0 0.0 0.00 0.00 0.00 62 1015.2
20260504173649 0 0.0 0.0 0.00 0.00 0.00 63 1015.3
20260504170805 0 0.0 0.0 0.00 0.00 0.00 61 1015.5
20260504140126 0 0.0 0.0 0.00 0.00 0.00 67 1017.0
20260504130403 0 0.0 0.0 0.00 0.00 0.00 62 1017.4
20260504081706 0 0.0 0.0 0.00 0.00 0.00 73 1015.0
20260504080244 0 0.0 0.0 0.00 0.00 0.00 72 1014.9